This is the latest recevied weather packets stored in our database for station/object KD2RHT-13. If no packets are shown the sender has not sent any weather packets the latest 10 day(s).
| Time | Temp. | Humidity | Pressure | Rain* | Wind** | Luminosity | Snow |
|---|---|---|---|---|---|---|---|
| 1777034229 | 7.22° C | 65% | 1016.2 hPa | 0 mm | - | 79 W/m² | - |
| 1777033928 | 7.22° C | 66% | 1015.9 hPa | 0 mm | - | 78 W/m² | - |
| 1777033625 | 7.22° C | 66% | 1015.9 hPa | 0 mm | - | 69 W/m² | - |
| 1777033322 | 7.22° C | 66% | 1015.9 hPa | 0 mm | - | 68 W/m² | - |
| 1777033019 | 7.22° C | 66% | 1015.6 hPa | 0 mm | - | 59 W/m² | - |
| 1777032715 | 7.22° C | 66% | 1015.6 hPa | 0 mm | - | 58 W/m² | - |
| 1777032411 | 7.22° C | 67% | 1015.6 hPa | 0 mm | - | 50 W/m² | - |
| 1777032106 | 7.22° C | 67% | 1015.6 hPa | 0 mm | - | 47 W/m² | - |
| 1777031802 | 6.67° C | 66% | 1015.2 hPa | 0 mm | - | 43 W/m² | - |
| 1777031497 | 6.67° C | 66% | 1015.6 hPa | 0 mm | - | 35 W/m² | - |
| 1777031191 | 6.67° C | 67% | 1015.2 hPa | 0 mm | - | 28 W/m² | - |
| 1777030887 | 6.67° C | 66% | 1015.9 hPa | 0 mm | - | 24 W/m² | - |
| 1777030583 | 6.67° C | 67% | 1015.6 hPa | 0 mm | - | 26 W/m² | - |
| 1777030278 | 6.67° C | 67% | 1014.9 hPa | 0 mm | - | 22 W/m² | - |
| 1777029975 | 6.67° C | 67% | 1015.6 hPa | 0 mm | - | 21 W/m² | - |
| 1777029672 | 6.67° C | 67% | 1015.2 hPa | 0 mm | - | 17 W/m² | - |
| 1777029370 | 6.67° C | 66% | 1015.2 hPa | 0 mm | - | 19 W/m² | - |
| 1777029065 | 6.67° C | 67% | 1015.6 hPa | 0 mm | - | 18 W/m² | - |
| 1777028765 | 6.67° C | 67% | 1015.2 hPa | 0 mm | - | 16 W/m² | - |
| 1777028459 | 7.22° C | 66% | 1015.6 hPa | 0 mm | - | 13 W/m² | - |
| 1777028155 | 7.22° C | 65% | 1015.2 hPa | 0 mm | - | 10 W/m² | - |
| 1777027850 | 7.22° C | 65% | 1015.2 hPa | 0 mm | - | 8 W/m² | - |
| 1777027546 | 7.22° C | 65% | 1014.9 hPa | 0 mm | - | 4 W/m² | - |
| 1777027243 | 7.22° C | 65% | 1015.2 hPa | 0 mm | - | 4 W/m² | - |
| 1777026939 | 7.22° C | 64% | 1014.9 hPa | 0 mm | - | 4 W/m² | - |
* Rain latest hour (hover to see other rain measurements)
** Current wind speed in m/s (hover to see current wind gust speed)